GW6398 Weather Reports


time (UTC)temp
C
wind
direction
speed
KPH
gust
KPH
rain 1hr
cm
rain 24hr
cm
rain mn
cm
humidity
%
barometer
mb
20260506024853 8 321 16.1 29.0 0.00 0.00 0.00 66 1014.0
20260506024350 9 320 16.1 20.9 0.00 0.00 0.00 65 1013.4
20260506023846 8 281 8.0 11.3 0.00 0.00 0.00 65 1013.5
20260506023343 8 284 3.2 6.4 0.00 0.00 0.00 66 1013.2
20260506022840 8 287 4.8 6.4 0.00 0.00 0.00 66 1013.3
20260506022337 8 277 1.6 3.2 0.00 0.00 0.00 65 1013.2
20260506021835 8 253 1.6 3.2 0.00 0.00 0.00 65 1013.2
20260506021332 9 252 3.2 4.8 0.00 0.00 0.00 64 1012.9
20260506020828 10 252 1.6 3.2 0.00 0.00 0.00 62 1012.9
20260506020326 10 249 1.6 4.8 0.00 0.00 0.00 62 1012.9
20260506015824 10 262 3.2 4.8 0.00 0.00 0.00 61 1012.7
20260506015321 10 266 3.2 3.2 0.00 0.00 0.00 59 1012.4
20260506014818 10 225 3.2 9.7 0.00 0.00 0.00 58 1012.5
20260506014315 10 254 3.2 4.8 0.00 0.00 0.00 57 1012.5
20260506013811 10 244 3.2 6.4 0.00 0.00 0.00 57 1012.4
20260506013309 10 310 8.0 12.9 0.00 0.00 0.00 57 1012.7
20260506012805 11 248 9.7 14.5 0.00 0.00 0.00 55 1012.4
20260506012307 11 195 8.0 11.3 0.00 0.00 0.00 55 1012.1
20260506011759 11 240 9.7 16.1 0.00 0.00 0.00 55 1012.1
20260506011256 11 243 4.8 12.9 0.00 0.00 0.00 55 1012.2
20260506010754 11 247 8.0 12.9 0.00 0.00 0.00 53 1012.7
20260506010251 11 253 9.7 14.5 0.00 0.00 0.00 53 1012.3
20260506005748 11 254 12.9 16.1 0.00 0.00 0.00 53 1012.1
20260506005245 11 265 8.0 12.9 0.00 0.00 0.00 53 1012.1
20260506004740 11 251 11.3 14.5 0.00 0.00 0.00 53 1011.9
20260506004239 11 268 11.3 17.7 0.00 0.00 0.00 52 1011.9
20260506003734 11 256 8.0 17.7 0.00 0.00 0.00 51 1012.1
20260506003231 11 211 8.0 22.5 0.00 0.00 0.00 51 1011.9
20260506002727 11 224 11.3 17.7 0.00 0.00 0.00 50 1011.9
20260506002223 12 231 8.0 20.9 0.00 0.00 0.00 50 1011.9
20260506001719 12 206 16.1 17.7 0.00 0.00 0.00 50 1011.9
20260506001217 12 241 9.7 20.9 0.00 0.00 0.00 49 1011.9
20260506000713 12 227 8.0 12.9 0.00 0.00 0.00 50 1012.1
20260506000212 13 219 11.3 14.5 0.00 0.00 0.00 47 1011.8
20260505235708 13 275 8.0 17.7 0.00 0.00 0.00 48 1011.8
20260505235206 12 212 9.7 12.9 0.00 0.00 0.00 50 1011.8
20260505234703 13 251 9.7 17.7 0.00 0.00 0.00 49 1012.1
20260505234200 13 285 9.7 16.1 0.00 0.00 0.00 48 1012.1
20260505233656 13 240 6.4 16.1 0.00 0.00 0.00 48 1011.8
20260505233154 13 223 6.4 16.1 0.00 0.00 0.00 50 1011.9
20260505232652 13 265 6.4 25.7 0.00 0.00 0.00 50 1011.9
20260505232149 13 244 11.3 16.1 0.00 0.00 0.00 51 1012.2
20260505231645 13 232 8.0 11.3 0.00 0.00 0.00 52 1012.1
20260505231145 12 258 11.3 16.1 0.00 0.00 0.00 52 1012.1
20260505230642 12 223 14.5 22.5 0.00 0.00 0.00 53 1012.1
20260505230138 12 288 12.9 17.7 0.00 0.00 0.00 54 1012.1
20260505225634 12 252 12.9 17.7 0.00 0.00 0.00 54 1012.1
20260505225131 11 241 9.7 12.9 0.00 0.00 0.00 58 1012.1
20260505224628 11 237 11.3 22.5 0.00 0.00 0.00 58 1012.2
20260505224125 11 242 16.1 20.9 0.00 0.00 0.00 58 1012.2
20260505223622 10 190 14.5 17.7 0.00 0.00 0.00 61 1012.4
20260505223118 10 213 24.1 29.0 0.00 0.00 0.00 59 1012.4
20260505222615 11 228 22.5 38.6 0.00 0.00 0.00 57 1012.9
20260505222111 11 247 14.5 24.1 0.00 0.00 0.00 59 1012.7
20260505221608 12 292 19.3 24.1 0.00 0.00 0.00 55 1012.7
20260505221105 12 286 9.7 20.9 0.00 0.00 0.00 54 1012.7
20260505220602 12 234 22.5 29.0 0.00 0.00 0.00 54 1012.5
20260505220100 12 238 12.9 24.1 0.00 0.00 0.00 54 1012.5
20260505215558 12 264 8.0 24.1 0.00 0.00 0.00 55 1012.5
20260505215055 12 231 9.7 22.5 0.00 0.00 0.00 56 1012.5
20260505214553 13 248 12.9 24.1 0.00 0.00 0.00 54 1012.8
20260505214050 13 250 12.9 22.5 0.00 0.00 0.00 53 1012.5
20260505213548 13 210 17.7 27.4 0.00 0.00 0.00 52 1012.7
20260505213044 13 208 20.9 30.6 0.00 0.00 0.00 52 1012.7
20260505212540 13 165 17.7 25.7 0.00 0.00 0.00 53 1012.7
20260505212038 13 192 16.1 33.8 0.00 0.00 0.00 50 1012.7
20260505211535 13 276 24.1 33.8 0.00 0.00 0.00 53 1012.7
20260505211031 12 245 20.9 37.0 0.00 0.00 0.00 54 1013.0
20260505210528 13 199 25.7 30.6 0.00 0.00 0.00 52 1013.2
20260505210025 13 325 16.1 24.1 0.00 0.00 0.00 54 1012.8
20260505205523 13 216 9.7 25.7 0.00 0.00 0.00 56 1012.9
20260505205020 13 219 14.5 24.1 0.00 0.00 0.00 55 1013.0
20260505204518 12 256 20.9 30.6 0.00 0.00 0.00 57 1013.2
20260505204015 13 281 24.1 27.4 0.00 0.00 0.00 56 1012.9
20260505203511 12 197 16.1 29.0 0.00 0.00 0.00 58 1013.3
20260505203008 12 291 16.1 22.5 0.00 0.00 0.00 61 1013.2
20260505202504 12 268 14.5 29.0 0.00 0.00 0.00 60 1013.3
20260505202000 12 217 14.5 25.7 0.00 0.00 0.00 61 1013.4
20260505201457 11 238 14.5 30.6 0.00 0.00 0.00 61 1013.0
20260505200955 11 260 12.9 22.5 0.00 0.00 0.00 64 1013.0
20260505200453 12 258 11.3 25.7 0.00 0.00 0.00 61 1013.3
20260505195948 12 187 14.5 22.5 0.00 0.00 0.00 62 1013.4
20260505195446 12 263 19.3 27.4 0.00 0.00 0.00 63 1013.3
20260505194943 12 223 12.9 25.7 0.00 0.00 0.00 67 1013.3
20260505194440 11 273 12.9 24.1 0.00 0.00 0.00 67 1013.2
20260505193940 11 230 11.3 25.7 0.00 0.00 0.00 69 1013.2
20260505193438 11 257 12.9 24.1 0.00 0.00 0.00 72 1013.2
20260505192935 11 294 12.9 24.1 0.00 0.00 0.00 75 1013.3
20260505192434 10 229 8.0 17.7 0.00 0.00 0.00 80 1013.4
20260505191931 10 208 17.7 24.1 0.00 0.00 0.00 79 1013.5
20260505191430 10 198 11.3 16.1 0.00 0.00 0.00 83 1013.4
20260505190926 9 241 11.3 17.7 0.00 0.00 0.00 83 1013.7
20260505190421 10 245 14.5 24.1 0.00 0.00 0.00 76 1013.9
20260505185916 11 272 9.7 29.0 0.00 0.00 0.00 67 1013.7
20260505185414 13 253 17.7 33.8 0.00 0.00 0.00 55 1013.3
20260505184910 13 182 8.0 16.1 0.00 0.00 0.00 52 1013.3
20260505184407 13 226 11.3 22.5 0.00 0.00 0.00 49 1013.2
20260505183904 14 173 17.7 22.5 0.00 0.00 0.00 48 1013.2
20260505183401 13 157 11.3 25.7 0.00 0.00 0.00 50 1013.2
20260505182857 13 234 16.1 22.5 0.00 0.00 0.00 51 1013.4
20260505182355 13 244 12.9 20.9 0.00 0.00 0.00 52 1013.5
20260505181851 12 222 19.3 22.5 0.00 0.00 0.00 51 1013.4
20260505181348 12 221 14.5 16.1 0.00 0.00 0.00 54 1013.4
20260505180845 12 250 9.7 16.1 0.00 0.00 0.00 53 1013.5
20260505180341 12 206 12.9 17.7 0.00 0.00 0.00 53 1013.5
20260505175838 12 230 14.5 22.5 0.00 0.00 0.00 53 1013.5
20260505175334 12 214 12.9 14.5 0.00 0.00 0.00 52 1013.8
20260505174831 12 216 11.3 20.9 0.00 0.00 0.00 51 1013.7
20260505174329 12 188 6.4 11.3 0.00 0.00 0.00 51 1013.5
20260505173824 12 187 0.0 6.4 0.00 0.00 0.00 52 1013.8
20260505173321 12 212 6.4 14.5 0.00 0.00 0.00 52 1013.7
20260505172818 12 216 8.0 14.5 0.00 0.00 0.00 53 1013.8
20260505172316 12 167 6.4 12.9 0.00 0.00 0.00 51 1013.9
20260505171810 12 236 1.6 11.3 0.00 0.00 0.00 51 1014.0
20260505171307 12 162 1.6 4.8 0.00 0.00 0.00 52 1014.0
20260505170803 11 168 1.6 3.2 0.00 0.00 0.00 54 1014.0
20260505170301 11 224 8.0 11.3 0.00 0.00 0.00 52 1013.9
20260505165755 11 281 4.8 6.4 0.00 0.00 0.00 53 1014.1
20260505165251 10 209 0.0 4.8 0.00 0.00 0.00 55 1014.0
20260505164747 10 253 4.8 11.3 0.00 0.00 0.00 55 1014.1
20260505164244 10 326 8.0 12.9 0.00 0.00 0.00 55 1014.0
20260505163742 10 303 6.4 11.3 0.00 0.00 0.00 57 1014.0
20260505163241 10 309 8.0 14.5 0.00 0.00 0.00 57 1014.4
20260505162738 10 351 11.3 12.9 0.00 0.00 0.00 57 1014.3
20260505162235 10 341 6.4 6.4 0.00 0.00 0.00 56 1014.4
20260505161731 10 221 4.8 11.3 0.00 0.00 0.00 57 1014.4
20260505161230 10 255 9.7 14.5 0.00 0.00 0.00 56 1014.5
20260505160726 10 3 6.4 11.3 0.00 0.00 0.00 57 1014.4
20260505160225 10 340 6.4 14.5 0.00 0.00 0.00 56 1014.4
20260505153203 10 268 6.4 6.4 0.00 0.00 0.00 56 1014.8
20260505152700 10 319 4.8 16.1 0.00 0.00 0.00 57 1014.5
20260505152156 9 317 4.8 14.5 0.00 0.00 0.00 59 1014.6
20260505151651 9 352 8.0 17.7 0.00 0.00 0.00 58 1014.8
20260505151149 9 264 3.2 9.7 0.00 0.00 0.00 60 1014.9
20260505150645 9 304 8.0 9.7 0.00 0.00 0.00 61 1015.0
20260505150142 8 272 4.8 9.7 0.00 0.00 0.00 61 1014.8
20260505140610 11 247 4.8 12.9 0.00 0.00 0.00 49 1014.9
20260505140108 11 265 4.8 9.7 0.00 0.00 0.00 49 1014.9
20260505125024 10 278 9.7 16.1 0.00 0.00 0.00 49 1014.4
20260505124520 10 273 6.4 14.5 0.00 0.00 0.00 49 1014.4
20260505124017 10 262 9.7 12.9 0.00 0.00 0.00 48 1014.3
20260505123514 10 276 3.2 11.3 0.00 0.00 0.00 47 1014.3
20260505123009 10 266 6.4 9.7 0.00 0.00 0.00 47 1014.4
20260505122507 10 253 6.4 9.7 0.00 0.00 0.00 46 1014.4
20260505122004 10 252 8.0 9.7 0.00 0.00 0.00 46 1014.5
20260505121500 10 225 4.8 11.3 0.00 0.00 0.00 45 1014.4
20260505120956 10 264 4.8 9.7 0.00 0.00 0.00 45 1014.3
20260505120453 10 236 8.0 9.7 0.00 0.00 0.00 44 1014.3
20260505115952 10 239 4.8 11.3 0.00 0.00 0.00 44 1014.1
20260505115449 10 240 6.4 9.7 0.00 0.00 0.00 43 1014.3
20260505114947 10 232 8.0 11.3 0.00 0.00 0.00 43 1014.3
20260505114443 10 249 4.8 4.8 0.00 0.00 0.00 42 1014.0
20260505113940 10 233 4.8 6.4 0.00 0.00 0.00 41 1013.9
20260505113436 10 237 3.2 11.3 0.00 0.00 0.00 41 1014.3
20260505112931 10 228 4.8 6.4 0.00 0.00 0.00 40 1014.3
20260505112429 11 233 1.6 4.8 0.00 0.00 0.00 40 1014.3
20260505111925 11 234 4.8 11.3 0.00 0.00 0.00 39 1014.1
20260505111420 11 244 6.4 12.9 0.00 0.00 0.00 39 1014.3
20260505110917 10 226 8.0 11.3 0.00 0.00 0.00 40 1014.3
20260505110414 11 224 3.2 4.8 0.00 0.00 0.00 40 1014.4
20260505101844 11 225 6.4 9.7 0.00 0.00 0.00 36 1014.0
20260505101339 10 251 6.4 6.4 0.00 0.00 0.00 36 1013.9
20260505100835 10 208 6.4 6.4 0.00 0.00 0.00 39 1013.8
20260505100332 10 213 3.2 4.8 0.00 0.00 0.00 39 1013.9
20260505095828 11 205 4.8 6.4 0.00 0.00 0.00 38 1014.0
20260505095326 11 187 8.0 11.3 0.00 0.00 0.00 36 1013.9
20260505094821 11 211 4.8 6.4 0.00 0.00 0.00 30 1013.7
20260505094318 11 261 4.8 6.4 0.00 0.00 0.00 33 1013.8
20260505093814 11 259 1.6 4.8 0.00 0.00 0.00 34 1013.5
20260505093312 11 323 9.7 14.5 0.00 0.00 0.00 34 1013.8
20260505092808 11 279 3.2 6.4 0.00 0.00 0.00 36 1013.8
20260505092307 11 238 1.6 3.2 0.00 0.00 0.00 38 1013.9
20260505091804 11 295 4.8 11.3 0.00 0.00 0.00 37 1013.8
20260505091301 12 307 6.4 11.3 0.00 0.00 0.00 37 1014.0
20260505090759 12 241 11.3 17.7 0.00 0.00 0.00 37 1014.1
20260505090257 12 275 4.8 11.3 0.00 0.00 0.00 37 1014.0
20260505085754 12 275 6.4 22.5 0.00 0.00 0.00 37 1013.9
20260505085253 12 265 11.3 16.1 0.00 0.00 0.00 37 1014.0
20260505084749 12 258 11.3 16.1 0.00 0.00 0.00 37 1013.9
20260505084244 12 293 6.4 14.5 0.00 0.00 0.00 37 1014.0
20260505083740 12 302 8.0 16.1 0.00 0.00 0.00 36 1014.4
20260505083237 12 256 11.3 20.9 0.00 0.00 0.00 36 1014.1
20260505082733 12 304 9.7 12.9 0.00 0.00 0.00 36 1014.1
20260505082230 12 265 11.3 17.7 0.00 0.00 0.00 36 1014.3
20260505081726 12 253 9.7 14.5 0.00 0.00 0.00 36 1014.3
20260505081224 13 264 16.1 17.7 0.00 0.00 0.00 35 1014.1
20260505080720 13 275 12.9 25.7 0.00 0.00 0.00 35 1014.5
20260505080216 13 229 9.7 20.9 0.00 0.00 0.00 35 1014.8
20260505075712 13 250 6.4 14.5 0.00 0.00 0.00 35 1014.4
20260505075209 13 261 11.3 14.5 0.00 0.00 0.00 35 1014.5
20260505074706 13 282 8.0 14.5 0.00 0.00 0.00 34 1014.5
20260505074203 13 248 14.5 16.1 0.00 0.00 0.00 34 1014.4
20260505073701 13 289 16.1 22.5 0.00 0.00 0.00 34 1014.4
20260505073159 13 270 4.8 14.5 0.00 0.00 0.00 34 1014.5
20260505072654 13 249 4.8 20.9 0.00 0.00 0.00 33 1014.4
20260505072151 13 280 9.7 17.7 0.00 0.00 0.00 33 1014.4
20260505071646 13 249 12.9 22.5 0.00 0.00 0.00 33 1014.5
20260505071144 13 266 14.5 22.5 0.00 0.00 0.00 33 1014.6
20260505070641 13 249 19.3 25.7 0.00 0.00 0.00 32 1014.5
20260505070138 13 238 17.7 17.7 0.00 0.00 0.00 32 1014.4
20260505065633 13 257 4.8 17.7 0.00 0.00 0.00 32 1014.6
20260505065130 13 316 16.1 17.7 0.00 0.00 0.00 31 1014.5
20260505064627 13 251 8.0 14.5 0.00 0.00 0.00 31 1014.6
20260505064125 13 229 3.2 11.3 0.00 0.00 0.00 31 1014.5
20260505063623 13 234 3.2 11.3 0.00 0.00 0.00 31 1014.0
20260505063118 14 286 6.4 11.3 0.00 0.00 0.00 30 1014.6
20260505062615 14 284 6.4 11.3 0.00 0.00 0.00 30 1014.6
20260505062113 14 240 8.0 11.3 0.00 0.00 0.00 29 1014.9
20260505061609 14 254 6.4 11.3 0.00 0.00 0.00 29 1014.9
20260505061108 14 188 12.9 14.5 0.00 0.00 0.00 29 1014.8
20260505060605 14 216 1.6 3.2 0.00 0.00 0.00 29 1015.0
20260505055557 15 225 4.8 9.7 0.00 0.00 0.00 29 1014.9
20260505055054 15 227 1.6 11.3 0.00 0.00 0.00 28 1014.8
20260505054551 15 227 11.3 16.1 0.00 0.00 0.00 28 1014.6
20260505054049 15 257 6.4 16.1 0.00 0.00 0.00 28 1014.5
20260505053546 15 221 9.7 11.3 0.00 0.00 0.00 28 1014.8
20260505053042 15 256 19.3 20.9 0.00 0.00 0.00 27 1014.8
20260505052539 15 287 9.7 14.5 0.00 0.00 0.00 27 1014.5
20260505052037 15 233 9.7 16.1 0.00 0.00 0.00 27 1014.4
20260505051533 15 224 6.4 9.7 0.00 0.00 0.00 27 1014.5
20260505051032 15 237 12.9 16.1 0.00 0.00 0.00 27 1014.4
20260505050530 15 212 11.3 16.1 0.00 0.00 0.00 27 1014.1
20260505041457 16 241 3.2 14.5 0.00 0.00 0.00 27 1013.9
20260505040955 16 214 14.5 20.9 0.00 0.00 0.00 27 1014.3
20260505040452 16 256 11.3 20.9 0.00 0.00 0.00 27 1014.1
20260505035949 16 253 9.7 20.9 0.00 0.00 0.00 26 1014.3
20260505035444 16 232 17.7 24.1 0.00 0.00 0.00 26 1014.3
20260505034942 16 245 11.3 20.9 0.00 0.00 0.00 26 1014.3
20260505034438 16 273 16.1 27.4 0.00 0.00 0.00 26 1014.1
20260505033936 16 235 11.3 20.9 0.00 0.00 0.00 26 1013.9
20260505033432 16 160 17.7 27.4 0.00 0.00 0.00 25 1014.0
20260505032931 16 286 14.5 30.6 0.00 0.00 0.00 25 1013.9
20260505032427 16 280 14.5 22.5 0.00 0.00 0.00 25 1014.0
20260505031924 17 242 14.5 27.4 0.00 0.00 0.00 24 1013.9
20260505031421 17 274 24.1 35.4 0.00 0.00 0.00 24 1013.8
20260505030918 17 294 20.9 30.6 0.00 0.00 0.00 24 1013.8
20260505030413 17 230 14.5 25.7 0.00 0.00 0.00 24 1013.7
20260505025909 17 232 16.1 22.5 0.00 0.00 0.00 24 1013.5
20260505025407 17 252 14.5 35.4 0.00 0.00 0.00 23 1013.7